User: anonymous   Login
Location: Unspecified
(0.0000°N, 0.0000°E)
Time: 19:27:08
(UTC+00:00)
Language:

E-STAR-II - Orbit

View from above orbital plane
View from above orbital plane
View from above satellite
View from above satellite

Ground track
Ground track

The orbit data is extracted from the following two-line orbital elements,

1 41459U 16025D   18351.45611454  .00000923  00000-0  52442-4 0  9990
2 41459  98.1193  63.7259 0167542 253.4473 104.8279 15.04912970144986
Epoch (UTC): 17 December 2018 10:56:48
Eccentricity: 0.0167542
inclination: 98.1193°
perigee height: 435 km
apogee height: 668 km
right ascension of ascending node: 63.7259°
argument of perigee: 253.4473°
revolutions per day: 15.04912970
mean anomaly at epoch: 104.8279°
orbit number at epoch: 14498

The dashed part of the orbit path shows where the satellite is in the earth's shadow,  

DLR